{"data":{"norad_id":58099,"epoch":"2026-09-20T20:57:56.507616Z","epoch_age_seconds":108136,"freshness":"FRESH","line1":"1 58099U 23161C   26263.87357069  .00000683  00000+0  31360-4 0  9991","line2":"2 58099  53.1607 327.6185 0001045  91.0668 269.0454 15.34394633164458","mean_motion":15.34394633,"eccentricity":0.0001045,"inclination_deg":53.1607,"raan_deg":327.6185,"arg_perigee_deg":91.0668,"mean_anomaly_deg":269.0454,"bstar":3.136e-5,"rev_number":16445,"period_min":93.848086341684,"perigee_km":462.00432263657,"apogee_km":463.43406158072,"semimajor_km":6840.8561921086,"source":"CELESTRAK","updated_at":"2026-09-21T09:00:33.786389Z"}}